Bowser, British Columbia

9:01 AM PST on November 22, 2017 (GMT -0800)
Bowser

Weather History for 71781 - November, 2012

Change the Weather History Date:

Saturday, November 3, 2012

  Actual Average Record
Temperature  
Mean Temperature 51 °F -  
Max Temperature 52 °F - - ()
Min Temperature 50 °F - - ()
Degree Days  
Heating Degree Days 14    
Growing Degree Days 1 (Base 50)    
Moisture  
Dew Point 49 °F    
Average Humidity 90    
Maximum Humidity 96    
Minimum Humidity 80    
Precipitation  
Precipitation 0.00 in - - ()
Sea Level Pressure  
Sea Level Pressure 29.95 in    
Wind  
Wind Speed 18 mph ()    
Max Wind Speed 36 mph    
Max Gust Speed 28 mph    
T = Trace of Precipitation, MM = Missing Value Source: Averaged Metar Reports

Daily Weather History Graph

Daily Weather History Graph

Search for Another Location

Airport or City:

Trip Planner

Search our weather history database for the weather conditions in past years. The results will help you decide how hot, cold, wet, or windy it might be!

Date:

Astronomy

Nov. 03, 2012 Rise Set
Actual Time 8:10 AM PDT 5:51 PM PDT
Civil Twilight 7:36 AM PDT 6:25 PM PDT
Nautical Twilight 6:58 AM PDT 7:03 PM PDT
Astronomical Twilight 6:21 AM PDT 7:40 PM PDT
Moon 9:29 PM PDT (11/3) 12:28 PM PDT (11/3)
Length of Visible Light 10h 48m
Length of Day
9h 41m
Waning Gibbous, 79% of the Moon is Illuminated
Nov 3
Waning Gibbous
Nov 6
Last Quarter
Nov 13
New
Nov 20
First Quarter
Nov 28
Full

Hourly Weather History & Observations

Time (PDT) Temp. Dew Point Humidity Pressure Visibility Wind Dir Wind Speed Gust Speed Precip Events Conditions
12:00 AM 52.2 °F 48.9 °F 89% 29.82 in - ESE 32.2 mph - N/A   Unknown
1:00 AM 52.7 °F 49.5 °F 89% 29.81 in - ESE 35.7 mph - N/A   Unknown
2:00 AM 52.0 °F 49.5 °F 91% 29.82 in - ESE 31.1 mph - N/A   Unknown
4:00 AM 51.3 °F 49.5 °F 94% 29.84 in - ESE 28.8 mph - N/A   Unknown
5:00 AM 51 °F 49 °F 92% 29.84 in - ESE 27.6 mph - -  
5:00 AM 51.1 °F 49.3 °F 94% 29.84 in - ESE 27.6 mph - N/A   Unknown
6:00 AM 51.1 °F 49.1 °F 93% 29.86 in - ESE 26.5 mph - N/A   Unknown
7:00 AM 51.3 °F 49.1 °F 92% 29.88 in - ESE 21.9 mph 27.6 mph N/A   Unknown
8:00 AM 51.3 °F 49.1 °F 92% 29.90 in - East 12.7 mph - N/A   Unknown
9:00 AM 52.9 °F 48.6 °F 85% 29.93 in - SSE 11.5 mph - N/A   Unknown
10:00 AM 52.9 °F 46.9 °F 80% 29.94 in - South 8.1 mph - N/A   Unknown
11:00 AM 52 °F 49 °F 84% 29.95 in - SSE 9.2 mph - -  
11:00 AM 51.6 °F 48.6 °F 89% 29.95 in - SSE 9.2 mph - N/A   Unknown
12:00 PM 51.3 °F 48.4 °F 90% 29.96 in - ESE 8.1 mph - N/A   Unknown
1:00 PM 50.7 °F 49.1 °F 94% 29.97 in - ESE 10.4 mph - N/A   Unknown
2:00 PM 50.2 °F 48.9 °F 95% 29.99 in - ESE 6.9 mph - N/A   Unknown
3:00 PM 50.5 °F 49.3 °F 95% 29.99 in - SSE 9.2 mph - N/A   Unknown
4:00 PM 50.5 °F 49.5 °F 96% 29.99 in - SSE 13.8 mph - N/A   Unknown
5:00 PM 51 °F 49 °F 92% 29.99 in - SSE 18.4 mph - -  
5:00 PM 50.9 °F 49.5 °F 95% 29.99 in - SSE 18.4 mph - N/A   Unknown
6:00 PM 50.7 °F 49.1 °F 94% 30.01 in - ESE 12.7 mph - N/A   Unknown
7:00 PM 51.8 °F 49.1 °F 90% 30.05 in - SE 8.1 mph - N/A   Unknown
8:00 PM 52.3 °F 47.8 °F 85% 30.05 in - ESE 8.1 mph - N/A   Unknown
9:00 PM 51.6 °F 48.6 °F 89% 30.07 in - East 8.1 mph - N/A   Unknown
10:00 PM 52.2 °F 48.7 °F 88% 30.08 in - ESE 11.5 mph - N/A   Unknown
11:00 PM 52 °F 49 °F 84% 30.08 in - ESE 19.6 mph - -  
11:00 PM 52.3 °F 48.6 °F 87% 30.08 in - ESE 19.6 mph - N/A   Unknown